Temperature
15 15 15 16 16 16 16 16 16 16 16 16 16 16 16 16 16 16 16 15 15 15 15 15 15 15 15 15 15 15 15 15 15 15 15 15 15 15 15 15 15 15 15
16 15 15 16 16 16 16 16 16 16 16 16 16 16 16 16 16 15 15 15 15 15 15 15 15 15 15 15 15 15 15 15 15 15 15 15 15 15 15 15 15 15 15
15 15 15 16 16 16 16 16 16 16 16 16 16 16 16 16 15 15 15 15 15 15 15 15 15 15 15 15 15 15 15 15 15 15 15 15 15 14 14 14 15 15 15
15 15 15 15 15 16 16 16 16 16 16 16 16 16 16 15 15 15 15 15 15 15 15 15 15 15 15 15 15 15 15 15 15 14 14 14 14 14 14 14 14 14 14
15 15 15 15 15 15 15 15 15 15 15 15 15 15 15 15 15 15 15 15 15 15 15 15 15 15 15 15 15 15 14 14 14 14 14 14 14 14 14 14 14 14 14
15 15 15 15 15 15 15 15 15 15 15 15 15 15 15 15 15 15 15 15 15 15 15 15 15 15 15 15 15 14 14 14 14 14 14 14 14 14 14 14 14 14 14
14 14 14 14 14 14 15 15 15 15 15 15 15 15 15 15 15 15 15 15 15 15 15 15 15 15 15 15 14 14 14 14 14 14 14 13 14 14 14 14 14 13 13
14 14 14 14 14 14 14 14 14 15 15 15 14 14 14 14 14 14 14 15 15 15 14 14 14 14 14 14 14 14 14 14 13 13 13 13 13 13 13 13 13 13 13
14 14 14 13 13 14 14 14 14 14 14 14 14 14 14 14 14 14 14 14 14 14 14 14 14 14 14 14 14 13 13 13 13 13 13 13 13 13 13 13 13 13 13
13 13 13 13 13 13 13 13 13 14 14 14 14 14 14 14 14 14 14 14 14 14 14 14 14 14 14 13 13 13 13 13 13 13 13 13 13 13 13 13 13 12 12
13 13 13 13 13 13 13 13 13 13 13 13 13 13 13 13 13 13 13 14 14 14 14 14 14 13 13 13 13 13 13 13 13 13 13 12 12 13 12 12 12 12 12
12 12 12 13 12 12 12 13 13 13 13 13 13 13 13 13 13 13 13 13 13 13 13 13 13 13 13 13 13 13 12 12 13 12 12 12 12 12 12 12 12 12 12
12 12 12 12 12 12 12 12 12 12 12 12 13 13 13 13 13 13 13 13 13 13 13 13 13 13 13 13 12 12 12 12 12 12 12 12 12 12 12 12 12 12 11
11 11 12 12 11 11 12 12 12 12 12 12 12 12 12 12 12 12 12 12 12 12 12 13 13 13 12 12 12 12 12 12 12 12 12 11 11 11 11 11 11 11 11
11 11 11 11 11 11 11 11 11 12 12 12 12 12 12 12 12 12 12 12 12 12 12 12 12 12 12 12 12 12 12 11 11 11 11 11 11 11 11 11 10 10 10
11 11 11 11 11 11 11 11 11 11 11 11 11 11 11 11 11 11 11 11 11 12 12 12 12 12 12 12 12 11 11 11 11 11 11 11 11 11 10 10 10 10 10
11 11 11 11 11 10 11 11 11 11 11 11 11 11 11 11 11 11 11 11 11 11 11 11 11 11 11 11 11 11 11 11 11 11 11 11 10 10 10 10 10 10 9
10 10 10 10 10 10 10 10 10 10 10 10 10 10 10 10 11 11 11 11 11 11 11 11 11 11 11 11 11 11 10 10 10 10 10 10 10 10 10 10 9 9 9
10 10 10 10 10 10 10 10 10 10 10 10 10 10 10 10 10 10 10 10 10 10 10 11 11 11 10 10 10 10 10 10 10 10 10 10 9 9 9 9 9 9 9
10 10 9 9 9 10 9 9 9 9 9 9 10 9 9 9 9 10 10 10 10 10 10 10 10 10 10 10 10 9 9 9 9 9 9 9 9 9 9 9 9 9 9
10 9 9 9 9 9 9 9 9 9 9 9 9 9 9 9 9 9 9 9 9 10 10 10 10 9 9 9 9 9 8 8 8 9 8 8 8 8 8 8 8 8 8
9 9 9 9 9 9 9 9 9 9 9 9 9 9 9 9 9 9 9 9 9 9 9 9 9 9 9 8 8 8 7 7 7 8 8 8 8 8 8 8 8 8 8
9 9 9 8 8 9 9 8 8 8 8 8 8 8 8 8 8 8 9 9 9 9 9 9 9 9 8 8 8 8 7 6 6 7 7 7 7 7 7 7 7 7 7
9 8 8 8 8 8 8 8 8 8 8 8 8 8 8 8 8 8 8 8 8 8 8 8 8 8 8 8 8 8 7 7 6 5 6 6 6 7 7 7 7 7 7
8 8 8 8 8 8 8 8 8 8 8 8 8 8 8 8 8 8 8 8 8 8 8 8 8 8 7 7 7 7 7 7 7 6 5 5 6 6 6 6 6 6 6
8 8 8 8 7 7 7 7 7 7 7 7 7 7 7 7 7 7 7 7 7 7 8 8 7 7 7 7 7 7 7 7 6 6 6 5 5 5 5 6 6 6 6
Wind_Speed
3 6 10 10 10 10 10 10 10 10 10 10 10 11 11 11 11 11 11 11 11 10 10 10 10 11 11 11 12 11 11 11 11 11 11 10 10 11 11 11 11 10 11
6 8 12 11 10 10 10 10 10 10 10 10 10 10 10 10 10 10 10 10 10 10 9 10 10 10 10 10 10 10 10 10 10 10 10 10 9 10 10 10 10 9 11
8 9 11 12 11 10 10 10 10 10 10 9 10 10 10 10 10 9 9 9 9 9 9 9 10 9 9 9 9 9 9 9 9 9 9 8 8 9 10 10 10 10 9
9 9 10 11 11 10 10 9 9 10 10 10 9 9 9 10 9 9 9 8 8 9 9 10 9 9 9 9 8 8 8 8 8 8 7 7 7 8 9 10 10 9 9
8 8 9 12 11 11 10 9 9 9 10 9 9 9 9 9 9 8 8 8 9 9 9 9 9 9 8 7 7 7 8 7 7 7 7 7 6 8 9 9 9 9 9
7 8 9 11 10 11 10 9 9 9 9 9 9 9 8 8 8 8 8 9 9 9 9 9 9 8 8 7 7 7 8 8 8 8 8 7 6 7 8 8 8 8 8
6 8 9 10 9 10 10 9 9 8 8 8 8 8 8 8 8 8 8 9 9 9 8 8 8 8 7 7 7 8 8 8 9 8 7 7 6 7 7 7 7 8 8
7 7 8 9 9 9 9 9 8 7 7 8 8 8 8 7 7 8 8 9 9 8 8 8 7 7 6 6 7 8 8 9 8 7 6 6 6 7 7 8 8 8 8
6 7 6 7 8 8 8 9 8 7 7 7 7 7 7 7 7 7 8 8 9 8 8 7 7 6 5 6 7 8 8 9 9 7 6 6 7 7 8 8 8 8 8
4 5 5 5 6 6 7 9 8 7 6 6 6 7 7 7 7 7 7 8 8 8 7 6 6 5 5 5 6 8 9 8 8 7 6 6 7 8 8 8 8 8 7
3 4 4 4 4 5 5 8 7 6 6 6 6 6 6 6 6 6 7 8 7 7 7 5 4 4 4 5 6 8 8 7 7 6 6 7 7 8 8 8 8 8 7
3 4 4 4 4 5 5 6 6 6 5 5 5 5 5 5 5 5 6 7 7 6 5 4 3 3 4 4 5 7 7 7 6 5 6 7 7 7 8 8 7 7 7
4 4 4 4 5 4 4 5 5 5 5 4 5 5 5 4 4 4 4 4 5 5 4 3 3 4 4 4 5 6 6 6 6 5 5 7 6 7 7 7 7 7 6
3 4 4 5 4 4 4 4 4 4 3 3 4 5 5 3 3 3 3 3 3 3 3 3 3 4 4 6 6 6 6 6 5 5 5 6 6 6 6 6 7 7 6
4 4 4 5 5 4 4 4 4 4 4 4 4 5 5 4 2 3 3 3 3 4 4 3 2 4 4 5 6 6 5 5 6 6 5 6 6 5 5 6 6 6 6
5 4 3 5 5 4 4 4 4 4 4 4 4 5 5 5 3 3 3 3 3 4 4 3 3 3 3 4 4 5 6 6 6 6 6 6 5 5 5 5 5 5 5
6 4 3 4 4 4 4 4 4 4 5 4 4 5 5 5 4 3 3 3 3 4 4 4 4 4 3 3 3 4 5 5 5 5 5 5 5 5 4 4 4 4 4
5 5 4 4 4 4 4 4 3 4 4 4 4 4 5 5 5 4 2 2 3 4 4 3 3 3 3 3 2 2 3 3 4 5 5 5 5 5 4 3 3 3 3
6 6 4 4 5 4 4 3 3 3 3 4 4 4 4 5 5 4 3 3 4 3 2 3 3 3 3 3 3 2 2 2 2 4 4 5 5 4 4 3 3 2 2
5 5 5 4 4 4 3 3 2 2 2 2 3 4 4 4 5 4 3 3 4 3 2 3 4 3 3 3 3 3 2 1 1 2 3 4 4 3 3 3 3 2 2
5 5 5 4 4 4 3 3 3 3 2 2 2 4 4 4 4 4 3 3 3 3 4 4 4 4 3 3 3 2 3 2 1 1 2 2 2 3 3 2 2 2 2
6 6 5 5 4 4 3 3 2 2 2 2 2 2 4 4 4 4 4 4 4 4 4 4 4 3 2 2 3 3 1 2 2 1 1 1 1 2 2 1 2 1 1
6 6 5 5 4 4 4 3 3 2 1 1 1 1 2 4 4 4 3 4 4 4 5 5 5 5 4 1 2 4 3 2 1 2 1 0 1 0 0 1 1 1 1
6 5 5 5 4 4 5 5 5 3 2 2 2 2 1 3 3 3 3 4 4 3 4 5 4 4 5 4 2 1 2 3 2 1 1 1 1 1 2 1 2 2 3
4 5 5 5 4 4 4 5 5 3 2 2 1 2 1 1 2 3 3 3 3 3 4 4 4 4 3 3 3 2 1 1 2 2 2 2 2 2 2 2 3 3 4
3 3 4 5 4 4 4 4 5 5 4 4 2 2 1 1 1 1 2 3 3 3 3 4 4 5 4 3 2 2 3 2 2 2 3 3 3 3 3 3 3 3 4
Wind_Direction
165 160 141 132 126 119 117 114 110 109 112 113 111 108 106 105 104 103 107 109 109 110 110 108 105 103 100 98 97 93 90 89 87 84 80 76 82 86 81 76 72 71 75
156 150 139 133 126 121 117 117 116 112 112 115 115 113 111 111 110 107 108 111 112 111 112 111 110 107 103 99 99 98 94 91 90 85 79 77 81 87 84 80 78 77 76
134 138 136 132 126 122 120 118 120 118 115 116 119 118 115 112 112 111 108 111 115 115 114 112 108 106 104 100 98 99 98 97 92 89 85 81 82 89 87 84 81 79 78
127 129 132 132 129 126 123 121 121 121 118 118 119 119 118 115 111 109 108 108 115 116 114 113 109 105 103 98 96 97 98 96 92 91 89 89 86 90 89 86 81 80 80
116 120 127 131 133 130 127 125 124 123 121 120 121 120 121 120 117 115 110 106 112 115 114 112 111 109 106 102 99 98 96 94 90 89 92 93 91 94 90 87 82 81 79
116 121 127 130 132 133 131 127 125 126 125 124 125 127 125 126 125 123 115 109 111 112 113 113 115 113 110 105 102 101 95 89 89 95 95 90 91 96 94 92 85 82 80
125 124 129 134 133 136 136 133 129 129 131 131 131 134 132 129 132 130 122 117 113 114 117 118 119 116 111 105 105 99 95 93 94 95 93 89 92 92 96 97 91 84 83
131 124 130 136 144 139 140 138 135 134 136 138 136 136 137 136 135 137 133 128 121 118 120 122 122 118 110 105 102 96 95 94 100 98 94 92 94 93 95 95 93 87 84
129 126 128 133 144 142 144 141 138 138 136 139 142 140 138 139 137 138 138 136 128 123 120 122 124 119 112 104 98 96 97 94 98 97 96 90 92 92 93 91 90 88 84
131 133 138 135 141 142 148 143 137 136 132 135 138 141 140 138 137 139 141 141 136 131 125 124 122 116 107 103 99 100 100 95 99 100 97 95 92 90 90 89 86 87 84
151 147 146 143 142 144 151 149 140 138 136 135 135 137 138 134 137 139 143 146 143 137 129 129 129 116 105 104 102 102 97 93 99 98 102 104 99 95 90 88 87 86 83
189 179 165 158 153 151 158 149 144 139 135 134 135 134 140 144 147 150 151 154 150 142 137 132 133 114 105 96 97 100 95 96 98 98 108 109 102 98 94 90 88 89 85
205 196 175 168 163 156 153 153 149 146 144 145 144 140 142 143 146 143 139 148 150 146 132 127 112 100 102 99 97 100 101 98 98 97 110 113 105 101 99 94 87 85 83
205 210 182 177 165 161 162 155 153 151 151 158 164 157 147 141 144 145 140 149 149 146 128 116 107 108 107 106 108 106 107 102 98 96 103 112 111 107 103 100 91 85 82
191 195 193 178 170 164 163 162 153 158 162 164 163 165 160 152 167 162 159 155 161 152 140 130 117 118 112 107 111 112 110 105 99 95 94 105 112 112 108 103 94 86 77
195 198 192 184 172 163 160 160 166 162 159 156 163 169 169 161 162 169 166 157 164 161 150 144 135 126 118 113 109 110 113 107 103 99 93 92 101 111 110 104 95 83 74
187 185 198 190 168 163 160 167 162 166 160 157 166 170 168 167 160 163 166 168 175 163 147 133 119 112 111 108 108 105 110 109 106 101 98 93 90 96 104 106 95 82 68
177 177 198 186 164 158 159 167 159 161 157 159 161 164 167 167 161 152 167 180 171 156 140 142 140 118 115 118 115 106 105 110 108 103 99 99 96 89 87 89 85 72 59
178 172 182 168 160 161 160 159 156 152 153 162 161 168 172 172 167 158 167 169 161 148 148 157 144 134 130 123 119 104 97 111 120 112 106 107 110 106 98 85 78 69 48
164 160 165 161 161 154 150 142 150 147 155 160 163 177 181 176 170 158 162 161 154 152 159 151 145 135 137 134 113 82 56 60 100 121 127 120 116 116 113 97 81 66 40
147 149 161 165 164 152 153 157 166 178 189 201 184 180 176 175 169 157 168 160 158 164 167 157 147 140 128 128 101 72 26 21 43 129 121 123 115 112 106 111 100 78 20
160 160 166 171 171 168 172 171 171 174 187 203 174 161 168 170 173 168 164 171 167 162 156 161 149 144 142 140 137 128 82 1 353 23 62 135 142 108 107 130 143 121 20
167 172 176 181 179 169 161 143 119 99 77 98 175 191 184 173 169 163 159 165 165 169 172 175 168 152 166 193 162 149 155 201 255 307 305 118 121 100 167 176 199 231 269
183 179 174 175 177 170 164 160 156 168 183 208 198 193 184 167 163 161 156 162 164 168 172 174 170 160 163 178 195 159 156 159 173 234 299 303 284 250 243 227 223 255 267
181 179 174 165 175 172 171 170 167 175 178 162 158 167 176 158 152 158 162 162 167 172 171 168 168 167 170 179 183 175 138 123 165 184 236 264 284 263 251 236 221 235 260
170 169 167 162 172 175 173 172 170 174 164 155 163 179 196 175 165 155 165 160 167 167 165 170 172 170 174 172 177 182 173 181 194 186 221 249 264 269 263 249 229 227 245
Height
1524 1526 1527 1528 1529 1530 1531 1531 1532 1533 1534 1534 1535 1536 1536 1537 1537 1537 1538 1538 1539 1539 1540 1540 1540 1541 1541 1541 1542 1542 1542 1542 1542 1542 1542 1542 1542 1543 1543 1543 1543 1543 1543
1523 1525 1526 1527 1529 1529 1530 1531 1532 1533 1533 1534 1535 1535 1536 1536 1537 1537 1538 1538 1538 1539 1539 1540 1540 1541 1541 1542 1542 1542 1542 1543 1543 1543 1543 1543 1543 1544 1544 1544 1544 1544 1544
1522 1524 1525 1527 1528 1529 1530 1530 1531 1532 1533 1534 1534 1535 1535 1536 1536 1537 1537 1538 1538 1539 1539 1540 1540 1541 1541 1542 1542 1542 1543 1543 1543 1543 1544 1544 1544 1544 1545 1545 1545 1545 1545
1522 1523 1524 1526 1527 1528 1529 1530 1530 1531 1532 1533 1533 1534 1535 1535 1536 1536 1537 1537 1538 1538 1539 1540 1540 1541 1541 1542 1542 1543 1543 1543 1543 1544 1544 1544 1545 1545 1545 1545 1545 1545 1545
1522 1522 1523 1525 1526 1527 1528 1529 1529 1530 1531 1532 1533 1533 1534 1534 1535 1536 1536 1537 1537 1538 1538 1539 1540 1540 1541 1542 1542 1543 1543 1543 1544 1544 1544 1545 1545 1545 1545 1545 1545 1545 1545
1521 1522 1522 1524 1525 1526 1527 1528 1528 1529 1530 1531 1532 1532 1533 1534 1534 1535 1535 1536 1537 1537 1538 1539 1539 1540 1541 1541 1542 1542 1543 1543 1544 1544 1545 1545 1545 1546 1546 1546 1546 1546 1546
1519 1520 1522 1522 1524 1525 1526 1527 1527 1528 1529 1530 1530 1531 1532 1533 1533 1534 1535 1535 1536 1537 1537 1538 1539 1540 1540 1541 1542 1542 1543 1543 1544 1544 1545 1545 1546 1546 1546 1546 1546 1546 1546
1518 1519 1520 1521 1522 1523 1524 1525 1526 1527 1528 1529 1529 1530 1531 1531 1532 1533 1534 1534 1535 1536 1537 1538 1538 1539 1540 1541 1541 1542 1542 1543 1544 1544 1545 1545 1546 1546 1546 1546 1546 1546 1545
1517 1517 1519 1520 1520 1521 1523 1524 1525 1526 1526 1527 1528 1529 1529 1530 1531 1532 1532 1533 1534 1535 1536 1537 1538 1538 1539 1540 1541 1541 1542 1543 1544 1544 1545 1545 1545 1545 1545 1545 1545 1545 1545
1515 1516 1517 1518 1519 1519 1520 1522 1523 1524 1525 1525 1526 1527 1528 1529 1530 1530 1531 1532 1533 1534 1535 1536 1537 1538 1538 1539 1540 1541 1542 1542 1543 1544 1544 1545 1545 1545 1545 1545 1545 1545 1545
1512 1514 1515 1516 1516 1517 1519 1520 1521 1522 1523 1524 1524 1525 1526 1527 1528 1529 1530 1530 1532 1533 1533 1534 1535 1536 1537 1538 1539 1540 1541 1542 1542 1543 1544 1544 1544 1544 1544 1544 1544 1544 1544
1509 1511 1512 1513 1514 1515 1516 1518 1519 1520 1521 1522 1523 1524 1525 1525 1526 1527 1528 1529 1530 1531 1532 1533 1534 1535 1536 1537 1538 1539 1540 1541 1542 1542 1543 1543 1544 1544 1544 1544 1544 1543 1543
1507 1508 1509 1510 1511 1512 1514 1515 1516 1517 1518 1519 1520 1521 1522 1523 1524 1525 1526 1527 1528 1529 1530 1531 1533 1534 1535 1536 1537 1538 1539 1540 1541 1541 1542 1542 1543 1543 1543 1543 1543 1543 1542
1505 1506 1506 1508 1509 1510 1511 1513 1514 1515 1516 1517 1518 1519 1520 1521 1522 1523 1524 1525 1526 1527 1528 1530 1531 1532 1533 1534 1535 1537 1538 1539 1539 1540 1541 1541 1541 1542 1542 1542 1542 1542 1541
1502 1503 1504 1505 1506 1507 1509 1510 1511 1512 1513 1514 1516 1517 1518 1519 1520 1521 1522 1523 1524 1525 1526 1527 1529 1530 1531 1532 1534 1535 1536 1537 1538 1539 1539 1540 1540 1541 1541 1541 1541 1541 1541
1499 1500 1501 1502 1503 1505 1506 1507 1508 1509 1510 1512 1513 1514 1515 1516 1517 1518 1519 1521 1522 1523 1524 1525 1527 1528 1529 1531 1532 1533 1534 1535 1536 1537 1538 1538 1538 1539 1539 1539 1539 1539 1539
1495 1497 1498 1499 1500 1502 1503 1505 1506 1507 1508 1509 1510 1511 1512 1514 1515 1516 1517 1518 1519 1520 1522 1523 1524 1526 1527 1528 1530 1531 1532 1533 1534 1535 1536 1536 1537 1537 1537 1538 1538 1538 1537
1493 1493 1496 1496 1498 1499 1501 1502 1503 1504 1505 1506 1507 1508 1509 1511 1512 1513 1514 1515 1517 1518 1519 1520 1521 1523 1524 1526 1527 1528 1530 1531 1532 1533 1534 1534 1535 1535 1535 1536 1536 1536 1535
1489 1490 1492 1493 1495 1496 1498 1500 1501 1501 1502 1503 1504 1505 1506 1508 1509 1510 1512 1513 1514 1515 1516 1518 1519 1520 1522 1523 1525 1526 1528 1529 1530 1531 1531 1532 1532 1533 1533 1534 1534 1534 1533
1486 1488 1489 1491 1492 1494 1495 1496 1497 1498 1499 1500 1501 1502 1503 1505 1506 1507 1509 1510 1511 1512 1514 1515 1516 1518 1519 1521 1522 1524 1525 1527 1528 1528 1529 1529 1530 1530 1531 1531 1531 1531 1531
1483 1485 1486 1488 1489 1490 1492 1493 1494 1494 1496 1497 1498 1499 1500 1502 1503 1504 1506 1507 1508 1510 1511 1512 1513 1515 1517 1518 1520 1521 1523 1524 1525 1526 1526 1527 1527 1528 1528 1529 1529 1528 1528
1480 1481 1483 1485 1486 1487 1489 1490 1491 1492 1493 1494 1495 1496 1497 1499 1500 1501 1503 1504 1506 1507 1508 1509 1511 1512 1513 1515 1517 1518 1520 1523 1522 1523 1524 1524 1525 1525 1525 1526 1526 1526 1526
1477 1479 1480 1482 1484 1485 1486 1488 1489 1489 1490 1491 1491 1493 1494 1496 1497 1498 1500 1501 1503 1504 1505 1506 1508 1509 1510 1513 1514 1515 1517 1517 1519 1520 1520 1521 1522 1522 1523 1523 1523 1523 1522
1474 1476 1478 1480 1481 1482 1484 1484 1485 1486 1486 1487 1489 1490 1491 1493 1494 1495 1496 1498 1499 1501 1502 1504 1505 1507 1508 1510 1511 1513 1514 1514 1515 1515 1517 1517 1518 1519 1519 1519 1519 1519 1519
1472 1473 1475 1477 1478 1479 1481 1481 1482 1483 1484 1485 1486 1487 1488 1489 1491 1492 1493 1495 1496 1498 1500 1501 1503 1504 1506 1507 1508 1509 1510 1512 1512 1512 1511 1513 1514 1515 1515 1515 1515 1515 1515
1469 1471 1472 1473 1475 1476 1478 1478 1479 1481 1482 1483 1483 1484 1485 1486 1488 1489 1490 1491 1493 1495 1497 1498 1500 1501 1502 1504 1505 1506 1507 1508 1508 1508 1508 1508 1509 1510 1510 1511 1511 1511 1510